Alyeska Resort
Hourly Weather - Base Weather Site
ALY_BASE_HR 2/7/2016
CLICK TO VIEW GRAPH!!

        DATE  TIME   Air  BATT   H2o   H2o   Rel
                    Temp  Volt  Inch Since  Hum%
                      F   AVG   1HR  0600   AVG

    2/7/2016 12:00    29 14.08  0.00  0.00    89
    2/7/2016 11:00    29 14.09  0.00  0.00    88
    2/7/2016 10:00    29 14.08  0.00  0.00    91
    2/7/2016 09:00    30 14.06  0.00  0.00    87
    2/7/2016 08:00    31 14.05  0.00  0.00    88
    2/7/2016 07:00    34 14.03  0.00  0.00    84
    2/7/2016 06:00    33 14.02  0.00  0.06    91
    2/7/2016 05:00    32 14.02  0.00  0.06    93
    2/7/2016 04:00    33 14.01  0.00  0.06    92
    2/7/2016 03:00    34 14.00  0.00  0.06    93
    2/7/2016 02:00    34 13.99  0.00  0.06    95
    2/7/2016 01:00    34 13.99  0.00  0.06    95
    2/6/2016 24:00    34 14.00  0.00  0.06    95
    2/6/2016 23:00    34 14.00  0.00  0.06    93
    2/6/2016 22:00    34 14.00  0.00  0.06    94
    2/6/2016 21:00    34 13.99  0.00  0.06    95
    2/6/2016 20:00    34 13.98  0.00  0.06    94
    2/6/2016 19:00    34 13.97  0.00  0.06    93
    2/6/2016 18:00    35 13.96  0.00  0.06    91
    2/6/2016 17:00    35 13.94  0.00  0.06    92
    2/6/2016 16:00    35 13.95  0.00  0.06    94
    2/6/2016 15:00    36 13.95  0.00  0.06    93
    2/6/2016 14:00    35 13.97  0.01  0.06    93
    2/6/2016 13:00    34 13.98  0.03  0.05    95


CLICK TO VIEW GRAPH!!